Location: Unspecified
(0.0000°N, 0.0000°E)
Time: 19:00:45
(UTC+00:00)

Vanguard 2 Rocket - Pass Details

Date: 22 January 2020
Orbit: 554 x 3327 km, 32.9° (Epoch: 20 February)

Event Time Altitude Azimuth Distance (km) Brightness Sun altitude
Rises 12:47:05 0° 310° (NW) 5,567 10.9 68.4°
Reaches altitude 10° 12:50:12 10° 311° (NW) 4,868 10.7 68.1°
Maximum altitude 13:05:46 78° 37° (NE) 3,128 10.7 66.2°
Drops below altitude 10° 13:26:25 10° 122° (ESE) 6,212 11.2 63.1°
Sets 13:31:00 0° 123° (ESE) 7,101 11.4 62.3°
